Погода в Ладико

Греция     36°20′25″N   28°12′01″E
темп.,
°C
ветер,
м/с
пор.,
м/с
влажн.,
%
обл.,
%
осадки,
мм/ч
давл.,
гПа
погр.,
м
15 мая, сб
сб1500:00+18зсз44700 0.0 1015112
03:00+18сз33700 0.0 1014122
06:00+17зсз33725 0.0 1013121
09:00+20зсз12550 0.0 1013236
12:00+21ю22510 0.0 1014353
15:00+23юв22555 0.0 1012272
18:00+22св2256100 0.0 1011178
21:00+21ююв1268100 0.0 101118
16 мая, вс
вс1600:00+19ссв226782 0.0 101076
03:00+19сз34620 0.0 1009116
06:00+18зсз477067 0.0 1008242
09:00+21з235681 0.0 1009219
12:00+22ю33582 0.0 1009574
15:00+23с55503 0.0 1008590
18:00+22зсз78582 0.0 1008293
21:00+19зсз610765 0.0 1009457
17 мая, пн
пн1700:00+19зсз811715 0.0 1010539
03:00+19зсз811755 0.0 1009515
06:00+18сз5107536 0.0 1009350
09:00+21сз475710 0.0 1011339
12:00+23з24536 0.0 1011237
15:00+25зсз46485 0.0 1010196
18:00+24зсз79485 0.0 1010171
21:00+20зсз47645 0.0 1012161
18 мая, вт
вт1800:00+19зсз35700 0.0 1012141
03:00+19сз23720 0.0 101190
06:00+19зсз22730 0.0 101290
09:00+21ююв11590 0.0 1013160
12:00+22юв21610 0.0 1014292
15:00+22ююв32640 0.0 1014334
18:00+22ююз44720 0.0 1013241
21:00+21с01770 0.0 101312
19 мая, ср
ср1900:00+20ссв11760 0.0 101418
03:00+20ссв11750 0.0 101225
06:00+20в11770 0.0 101216
09:00+21ю22710 0.0 1013120
12:00+22ю56770 0.0 1013328
15:00+22ююв56750 0.0 1012267
18:00+22ююв56770 0.0 1011246
21:00+21ююв01810 0.0 101124